Regional Weather Roundup
Issued by NWS

Home | Current Version | Previous Version | Text Only | Print | Product List | Glossary Off
Versions: 1 2 3 4 5 6 7 8 9 10 11 12 13 14 15 16 17 18 19 20 21 22 23 24 25 26 27 28 29 30 31 32 33 34 35 36 37 38 39 40 41 42 43 44 45 46 47 48 49 50

000
ASUS45 KTFX 202004
RWRMT
MONTANA HOURLY WEATHER ROUNDUP
NATIONAL WEATHER SERVICE GREAT FALLS MT
104 PM MST SAT DEC 20 2014

NOTE: "FAIR" INDICATES FEW OR NO CLOUDS BELOW 12000 FEET WITH NO
SIGNIFICANT WEATHER AND/OR OBSTRUCTIONS TO VISIBILITY.

* THESE STATIONS ARE NOT UNDER NWS QUALITY CONTROL. THEY DO NOT
   REPORT WEATHER SUCH AS PRECIPITATION OR FOG.

MTZ001>007-043-202100-
WEST OF THE DIVIDE
CITY           SKY/WX    TMP DP  RH WIND       PRES   REMARKS
KALISPELL      CLOUDY    36  30  79 CALM      29.83F
MISSOULA       CLOUDY    30  28  92 W5        29.88F WCI  25
BUTTE          CLOUDY    30  21  69 NW3       29.85F
MULLAN PASS    LGT SNOW  30  27  89 VRB3      29.73F VSB M1/4
* ESSEX        N/A       33  28  82 N/A        N/A
* LINCOLN      N/A       32  23  69 N/A        N/A
* LOOKOUT PASS N/A       29  29 100 S3         N/A
* POLSON       N/A       34  32  92 N/A        N/A
* RONAN APT    CLOUDY    34  30  85 N/A        N/A
* SEELEY LAKE  N/A       26  23  88 N/A        N/A
* THOMP F APT  PTSUNNY   28  26  92 NE1        N/A
* YAAK HILL    N/A       37  34  89 SE1        N/A
$$

MTZ008-052>055-202100-
SOUTHWEST MONTANA
CITY           SKY/WX    TMP DP  RH WIND       PRES   REMARKS
BOZEMAN        CLOUDY    34  25  70 SE3       29.88F
DILLON         PTSUNNY   36  25  64 S3        29.88F
* W YELLOWSTON CLOUDY    33  27  79 SW4G10     N/A
* THREE FORKS  CLOUDY    37  37 100 N/A        N/A
* BOULDER HILL N/A       27  17  66 SW13       N/A   WCI  16
* MONIDA PASS  N/A       26  26 100 SE14       N/A   WCI  14
* RAYNOLDS PAS N/A       31  16  54 S8         N/A   WCI  24
* WHITEHALL    N/A       35  24  64 S5         N/A   WCI  31
* WISE RIVER   N/A       30  22  72 NE2        N/A
$$

MTZ009>010-012-014-046-048-049-054-202100-
EAST SLOPES AND CENTRAL MONTANA
CITY           SKY/WX    TMP DP  RH WIND       PRES   REMARKS
GREAT FALLS    CLOUDY    39  23  53 SW18G25   29.77F WCI  30
HELENA         CLOUDY    36  25  64 NW3       29.85F
* DEARBORN     N/A       41  21  45 S10G20     N/A
* EAST GLACIER N/A       33  21  61 W14G24     N/A   WCI  23
* MONARCH      N/A       34  12  40 SW14G26    N/A   WCI  24
* PENDROY      N/A       40  17  39 SW2G7      N/A
* SWEET GRASS  N/A       35  22  59 W20        N/A   WCI  24
$$

MTZ011-013-016-021-035-040-045-047-050-051-202100-
NORTH CENTRAL MONTANA
CITY           SKY/WX    TMP DP  RH WIND       PRES   REMARKS
HAVRE          PTSUNNY   37  25  62 SW13      29.78F WCI  29
LEWISTOWN      CLOUDY    43  23  45 W14       29.80F
* N BAR RANCH  SUNNY     43  10  26 N5        29.81F
* CHESTER      N/A       34  26  73 S1         N/A
* DENTON       N/A       39  20  46 S5         N/A   WCI  35
* JUDITH GAP   N/A       40  20  45 SW20       N/A   WCI  30
* LOMA         N/A       44  24  45 SW11G16    N/A
$$

MTZ017>020-022>027-061-062-202100-
NORTHEAST MONTANA
CITY           SKY/WX    TMP DP  RH WIND       PRES   REMARKS
GLASGOW        SUNNY     45  23  42 W21       29.78F
GLENDIVE       SUNNY     46  27  48 W14       29.83F
JORDAN         PTSUNNY   45  21  38 W13       29.82F
SIDNEY         SUNNY     45  28  51 W12       29.81F
WOLF POINT     PTSUNNY   45  27  49 W16       29.79F
* BEAVER HILL  N/A       43  27  53 SW14       N/A
* CIRCLE       N/A       45  27  49 SW11G17    N/A
* LINDSAY DVD  N/A       42  24  49 W15G21     N/A
* SACO         N/A       44  26  49 W16        N/A
$$

MTZ028>042-056>058-202100-
SOUTHCENTRAL AND SOUTHEAST MONTANA
CITY           SKY/WX    TMP DP  RH WIND       PRES   REMARKS
BAKER          SUNNY     45  27  49 W14       29.84F
BILLINGS       PTSUNNY   37  23  57 SW12      29.87F WCI  29
LIVINGSTON     CLOUDY    43  19  38 W9G18     29.84F
MILES CITY     PTCLDY    45  27  49 W10       29.85F
* LAUREL APT   PTSUNNY   37  19  48 S6         N/A   WCI  32
* ROUNDUP APT  PTSUNNY   46  18  33 SW15G21    N/A
* ALZADA       N/A       43  26  51 SW8        N/A
* LAME DEER    N/A       40  23  51 W6         N/A   WCI  36
* REED POINT   N/A       38  26  62 E4         N/A
* ROSCOE HILL  N/A       42  12  29 E4         N/A
$$

REGIONAL REPORTS...DAKOTAS
CITY           SKY/WX    TMP DP  RH WIND       PRES   REMARKS
WILLISTON      SUNNY     36  30  79 SW8       29.78F WCI  30
DICKINSON      SUNNY     46  30  54 W13       29.79F
BEACH          SUNNY     43  27  53 W14       29.82F
CROSBY         SUNNY     32  32 100 SW14      29.76F WCI  22
WATFORD CITY   SUNNY     41  32  70 SW12      29.77F
BISMARCK       PTCLDY    28  27  96 SE6       29.84F WCI  21
GRAND FORKS    FOG       28  27  96 S10       29.95F VSB 1    WCI  19
FARGO          FOG       30  28  92 S16       29.97F WCI  19
BUFFALO SD     PTCLDY    46  25  44 NW14      29.79F
RAPID CITY     PTSUNNY   50  27  41 N10       29.88F
$$

REGIONAL REPORTS...WYOMING/IDAHO/WASHINGTON
CITY           SKY/WX    TMP DP  RH WIND       PRES   REMARKS
GILLETTE       PTSUNNY   45  23  42 SE5       29.89F
SHERIDAN       PTCLDY    39  27  62 N5        29.87F WCI  35
CODY           PTSUNNY   39  21  48 SE8       29.87F WCI  33
YELLOWSTONE LA CLOUDY    28  21  75 VRB5      29.93F WCI  22
SALMON         CLOUDY    30  28  92 N3        29.91F
MULLAN PASS    LGT SNOW  30  27  89 VRB3      29.73S VSB M1/4
SAND POINT     CLOUDY    37  37 100 N3        29.81F
SPOKANE        LGT RAIN  39  37  93 S7        29.77F WCI  34

$$



USA.gov is the U.S. government's official web portal to all federal, state and local government web resources and services.